DAL2750 KATL-KCLE

Flight info

Callsign DAL2750
Flight time 1h 17m
Altitude 37000
Route PADGT2 SMTTH Q67 HNN JANYS ROLLN2
Aircraft B738/M-SDE2E3FGHIRWXY/LB1

Departure

Time 2026-05-04 00:01
Airport Hartsfield Jackson Atlanta International Airport (KATL)

Arrival

Time 2026-05-04 01:18
Airport Cleveland Hopkins International Airport (KCLE)
Time Latitude Longitude Altitude Speed Heading
2026-05-03 23:23 33.64236 -84.42996 1005 ft 0 kts 90°
2026-05-03 23:49 33.64236 -84.43015 1005 ft 4 kts 82°
2026-05-03 23:50 33.64229 -84.43046 1005 ft 4 kts 54°
2026-05-03 23:50 33.64210 -84.43063 1005 ft 4 kts
2026-05-03 23:50 33.64206 -84.43064 1005 ft 2 kts 359°
2026-05-03 23:54 33.64212 -84.43064 1005 ft 5 kts 359°
2026-05-03 23:54 33.64287 -84.43065 1005 ft 14 kts
2026-05-03 23:54 33.64351 -84.43064 1005 ft 5 kts 360°
2026-05-03 23:55 33.64412 -84.43066 1005 ft 15 kts 347°
2026-05-03 23:55 33.64510 -84.43096 1006 ft 15 kts
2026-05-03 23:55 33.64541 -84.42963 1006 ft 20 kts 90°
2026-05-03 23:55 33.64541 -84.42796 1005 ft 20 kts 90°
2026-05-03 23:56 33.64542 -84.42633 1005 ft 19 kts 90°
2026-05-03 23:56 33.64542 -84.42476 1005 ft 19 kts 89°
2026-05-03 23:56 33.64542 -84.42325 1005 ft 18 kts 90°
2026-05-03 23:56 33.64542 -84.42178 1005 ft 17 kts 90°
2026-05-03 23:57 33.64542 -84.42036 1005 ft 17 kts 90°
2026-05-03 23:57 33.64542 -84.41899 1005 ft 17 kts 90°
2026-05-03 23:57 33.64542 -84.41743 1006 ft 19 kts 90°
2026-05-03 23:57 33.64542 -84.41566 1006 ft 22 kts 90°
2026-05-03 23:58 33.64542 -84.41385 1006 ft 21 kts 90°
2026-05-03 23:58 33.64542 -84.41208 1006 ft 21 kts 90°
2026-05-03 23:58 33.64542 -84.41036 1005 ft 20 kts 90°
2026-05-03 23:58 33.64542 -84.40870 1005 ft 20 kts 90°
2026-05-03 23:59 33.64569 -84.40715 1005 ft 19 kts 88°
2026-05-03 23:59 33.64580 -84.40585 1004 ft 9 kts 48°
2026-05-03 23:59 33.64583 -84.40582 1004 ft 0 kts 39°
2026-05-04 00:00 33.64587 -84.40579 1004 ft 4 kts 34°
2026-05-04 00:00 33.64668 -84.40578 1003 ft 18 kts 330°
2026-05-04 00:01 33.64681 -84.40801 1004 ft 55 kts 270°
2026-05-04 00:01 33.64680 -84.41539 1007 ft 120 kts 270°
2026-05-04 00:01 33.64686 -84.42751 1124 ft 162 kts 271°
2026-05-04 00:01 33.64708 -84.44137 1793 ft 171 kts 272°
2026-05-04 00:02 33.64744 -84.45567 2606 ft 170 kts 277°
2026-05-04 00:02 33.65064 -84.46996 3292 ft 183 kts 291°
2026-05-04 00:02 33.65591 -84.48467 3899 ft 199 kts 294°
2026-05-04 00:02 33.66161 -84.49998 4483 ft 207 kts 293°
2026-05-04 00:03 33.66803 -84.51699 4648 ft 237 kts 295°
2026-05-04 00:03 33.67551 -84.53562 5054 ft 260 kts 295°
2026-05-04 00:03 33.68329 -84.55561 5832 ft 265 kts 297°
2026-05-04 00:03 33.69468 -84.57286 6718 ft 266 kts 326°
2026-05-04 00:04 33.71165 -84.58129 7592 ft 269 kts 349°
2026-05-04 00:04 33.73047 -84.58240 8415 ft 273 kts 359°
2026-05-04 00:04 33.74957 -84.58192 9259 ft 277 kts 359°
2026-05-04 00:04 33.76889 -84.58145 10129 ft 279 kts 359°
2026-05-04 00:05 33.78843 -84.58107 10891 ft 283 kts 359°
2026-05-04 00:05 33.80826 -84.58071 11641 ft 287 kts
2026-05-04 00:05 33.82820 -84.57644 12074 ft 307 kts 13°
2026-05-04 00:05 33.84948 -84.56856 12264 ft 332 kts 15°
2026-05-04 00:06 33.87217 -84.55972 12410 ft 354 kts 15°
2026-05-04 00:06 33.89626 -84.55036 12580 ft 374 kts 15°
2026-05-04 00:06 33.92147 -84.54070 13009 ft 384 kts 15°
2026-05-04 00:06 33.94714 -84.53099 13643 ft 388 kts 15°
2026-05-04 00:07 33.97302 -84.52128 14284 ft 391 kts 15°
2026-05-04 00:07 33.99917 -84.51155 14915 ft 395 kts 14°
2026-05-04 00:07 34.02557 -84.50179 15487 ft 399 kts 14°
2026-05-04 00:07 34.05228 -84.49192 16061 ft 403 kts 14°
2026-05-04 00:08 34.07920 -84.48196 16639 ft 407 kts 14°
2026-05-04 00:08 34.10636 -84.47191 17228 ft 410 kts 14°
2026-05-04 00:08 34.13372 -84.46178 17824 ft 413 kts 14°
2026-05-04 00:08 34.16128 -84.45157 18348 ft 417 kts 14°
2026-05-04 00:09 34.18914 -84.44124 18819 ft 421 kts 14°
2026-05-04 00:09 34.21723 -84.43081 19313 ft 424 kts 14°
2026-05-04 00:09 34.24547 -84.42030 19801 ft 427 kts 14°
2026-05-04 00:09 34.27399 -84.40972 20273 ft 430 kts 14°
2026-05-04 00:10 34.30272 -84.39916 20739 ft 433 kts 12°
2026-05-04 00:10 34.33199 -84.39062 21174 ft 434 kts
2026-05-04 00:10 34.36175 -84.38364 21632 ft 436 kts
2026-05-04 00:10 34.39170 -84.37710 22063 ft 439 kts
2026-05-04 00:11 34.42187 -84.37049 22450 ft 442 kts
2026-05-04 00:11 34.45224 -84.36361 22850 ft 446 kts
2026-05-04 00:11 34.48283 -84.35646 23257 ft 449 kts
2026-05-04 00:11 34.51358 -84.34911 23650 ft 452 kts
2026-05-04 00:12 34.54455 -84.34163 23993 ft 455 kts
2026-05-04 00:12 34.57567 -84.33407 24351 ft 456 kts
2026-05-04 00:12 34.60680 -84.32651 24734 ft 458 kts
2026-05-04 00:12 34.63810 -84.31891 25092 ft 459 kts
2026-05-04 00:13 34.66944 -84.31131 25429 ft 461 kts
2026-05-04 00:13 34.70095 -84.30367 25750 ft 463 kts
2026-05-04 00:13 34.73261 -84.29599 26056 ft 464 kts
2026-05-04 00:13 34.76429 -84.28832 26354 ft 466 kts
2026-05-04 00:14 34.79617 -84.28059 26620 ft 469 kts
2026-05-04 00:14 34.82829 -84.27283 26840 ft 472 kts
2026-05-04 00:14 34.86055 -84.26496 27145 ft 474 kts
2026-05-04 00:14 34.89289 -84.25703 27463 ft 474 kts
2026-05-04 00:15 34.92523 -84.24910 27846 ft 474 kts
2026-05-04 00:15 34.95745 -84.24120 28300 ft 471 kts
2026-05-04 00:15 34.98952 -84.23333 28747 ft 469 kts
2026-05-04 00:15 35.02151 -84.22549 29171 ft 468 kts
2026-05-04 00:16 35.05343 -84.21767 29561 ft 468 kts
2026-05-04 00:16 35.08531 -84.20986 29987 ft 466 kts
2026-05-04 00:16 35.11705 -84.20209 30388 ft 465 kts
2026-05-04 00:16 35.14875 -84.19429 30690 ft 465 kts
2026-05-04 00:17 35.18045 -84.18650 31009 ft 465 kts
2026-05-04 00:17 35.21213 -84.17873 31327 ft 464 kts
2026-05-04 00:17 35.24370 -84.17096 31675 ft 462 kts
2026-05-04 00:17 35.27527 -84.16318 32007 ft 462 kts
2026-05-04 00:18 35.30632 -84.15552 32324 ft 461 kts
2026-05-04 00:18 35.33779 -84.14776 32624 ft 461 kts
2026-05-04 00:18 35.36914 -84.14003 32963 ft 460 kts
2026-05-04 00:18 35.40049 -84.13228 33264 ft 459 kts
2026-05-04 00:19 35.43179 -84.12454 33586 ft 458 kts
2026-05-04 00:19 35.46302 -84.11680 33885 ft 458 kts
2026-05-04 00:19 35.49422 -84.10908 34162 ft 457 kts
2026-05-04 00:19 35.52543 -84.10134 34392 ft 457 kts
2026-05-04 00:20 35.55656 -84.09361 34589 ft 458 kts
2026-05-04 00:20 35.58782 -84.08586 34770 ft 459 kts
2026-05-04 00:20 35.61909 -84.07810 35024 ft 458 kts
2026-05-04 00:20 35.65034 -84.07033 35278 ft 457 kts
2026-05-04 00:21 35.68153 -84.06257 35484 ft 458 kts
2026-05-04 00:21 35.71280 -84.05479 35667 ft 459 kts
2026-05-04 00:21 35.74406 -84.04699 35882 ft 458 kts
2026-05-04 00:21 35.77529 -84.03919 36106 ft 458 kts
2026-05-04 00:22 35.80656 -84.03138 36288 ft 459 kts
2026-05-04 00:22 35.83789 -84.02354 36456 ft 459 kts
2026-05-04 00:22 35.86920 -84.01571 36650 ft 459 kts
2026-05-04 00:22 35.90052 -84.00781 36855 ft 460 kts
2026-05-04 00:23 35.93103 -83.99430 36962 ft 474 kts 22°
2026-05-04 00:23 35.95968 -83.97416 37108 ft 476 kts 25°
2026-05-04 00:23 36.01669 -83.93192 37083 ft 479 kts 25°
2026-05-04 00:24 36.07391 -83.88986 37073 ft 478 kts 24°
2026-05-04 00:24 36.13139 -83.84847 37085 ft 478 kts 24°
2026-05-04 00:25 36.18894 -83.80730 37082 ft 478 kts 24°
2026-05-04 00:25 36.24655 -83.76600 37072 ft 478 kts 24°
2026-05-04 00:26 36.30413 -83.72467 37078 ft 478 kts 24°
2026-05-04 00:26 36.36167 -83.68325 37098 ft 479 kts 24°
2026-05-04 00:27 36.41936 -83.64163 37074 ft 479 kts 24°
2026-05-04 00:27 36.47703 -83.59996 37078 ft 480 kts 24°
2026-05-04 00:28 36.53467 -83.55826 37074 ft 480 kts 24°
2026-05-04 00:28 36.59244 -83.51636 37088 ft 481 kts 24°
2026-05-04 00:29 36.65038 -83.47430 37081 ft 482 kts 24°
2026-05-04 00:29 36.70836 -83.43213 37080 ft 482 kts 24°
2026-05-04 00:30 36.76622 -83.38984 37081 ft 482 kts 24°
2026-05-04 00:30 36.82390 -83.34776 37097 ft 484 kts 24°
2026-05-04 00:31 36.88200 -83.30533 37073 ft 484 kts 24°
2026-05-04 00:31 36.94011 -83.26253 37068 ft 484 kts 24°
2026-05-04 00:32 36.99811 -83.21981 37062 ft 484 kts 24°
2026-05-04 00:32 37.05619 -83.17758 37114 ft 483 kts 23°
2026-05-04 00:33 37.14297 -83.11265 37076 ft 484 kts 24°
2026-05-04 00:34 37.20090 -83.06949 37065 ft 485 kts 24°
2026-05-04 00:34 37.25900 -83.02645 37069 ft 484 kts 22°
2026-05-04 00:35 37.31831 -82.98676 37072 ft 483 kts 20°
2026-05-04 00:35 37.37816 -82.94837 37073 ft 483 kts 20°
2026-05-04 00:36 37.43779 -82.90946 37058 ft 483 kts 20°
2026-05-04 00:36 37.48722 -82.87689 37063 ft 483 kts 20°
2026-05-04 00:37 37.54661 -82.83746 37058 ft 484 kts 20°
2026-05-04 00:37 37.60605 -82.79822 37057 ft 481 kts 20°
2026-05-04 00:38 37.66537 -82.75918 37064 ft 481 kts 20°
2026-05-04 00:38 37.72465 -82.71999 37070 ft 481 kts 20°
2026-05-04 00:39 37.78355 -82.68092 37079 ft 482 kts 20°
2026-05-04 00:39 37.84297 -82.64138 37070 ft 483 kts 20°
2026-05-04 00:40 37.90241 -82.60181 37066 ft 483 kts 20°
2026-05-04 00:40 37.96183 -82.56219 37104 ft 483 kts 20°
2026-05-04 00:41 38.02124 -82.52247 37057 ft 483 kts 20°
2026-05-04 00:41 38.08057 -82.48258 37046 ft 482 kts 20°
2026-05-04 00:42 38.13987 -82.44281 37046 ft 482 kts 20°
2026-05-04 00:42 38.19915 -82.40299 37042 ft 481 kts 20°
2026-05-04 00:43 38.25826 -82.36322 37044 ft 480 kts 20°
2026-05-04 00:43 38.31726 -82.32326 37046 ft 480 kts 20°
2026-05-04 00:44 38.37593 -82.28362 37051 ft 481 kts 20°
2026-05-04 00:44 38.43507 -82.24354 37061 ft 483 kts 20°
2026-05-04 00:45 38.49441 -82.20323 37057 ft 484 kts 20°
2026-05-04 00:45 38.55388 -82.16279 37046 ft 484 kts 20°
2026-05-04 00:46 38.61332 -82.12230 37047 ft 484 kts 20°
2026-05-04 00:46 38.67281 -82.08159 37051 ft 485 kts 21°
2026-05-04 00:47 38.73286 -82.04270 37039 ft 478 kts 12°
2026-05-04 00:47 38.76427 -82.03062 37054 ft 467 kts
2026-05-04 00:47 38.79601 -82.02419 37042 ft 457 kts 355°
2026-05-04 00:48 38.85906 -82.02302 37093 ft 452 kts 352°
2026-05-04 00:48 38.89058 -82.02296 36916 ft 455 kts 352°
2026-05-04 00:48 38.92229 -82.02281 36645 ft 455 kts 352°
2026-05-04 00:48 38.95360 -82.02249 36385 ft 451 kts 353°
2026-05-04 00:49 38.98487 -82.02204 36135 ft 448 kts 352°
2026-05-04 00:49 39.01601 -82.02154 35881 ft 447 kts 352°
2026-05-04 00:49 39.04701 -82.02103 35641 ft 445 kts 352°
2026-05-04 00:49 39.07789 -82.02051 35391 ft 444 kts 352°
2026-05-04 00:50 39.10872 -82.01999 35188 ft 442 kts 352°
2026-05-04 00:50 39.13945 -82.01947 34951 ft 441 kts 352°
2026-05-04 00:50 39.17007 -82.01895 34715 ft 440 kts 352°
2026-05-04 00:50 39.20067 -82.01842 34475 ft 439 kts 352°
2026-05-04 00:51 39.23121 -82.01790 34247 ft 439 kts 352°
2026-05-04 00:51 39.26172 -82.01739 34010 ft 438 kts 352°
2026-05-04 00:51 39.29219 -82.01689 33733 ft 438 kts 352°
2026-05-04 00:51 39.32219 -82.01639 33530 ft 437 kts 352°
2026-05-04 00:52 39.35263 -82.01588 33267 ft 437 kts 352°
2026-05-04 00:52 39.38301 -82.01536 33011 ft 437 kts 352°
2026-05-04 00:52 39.41340 -82.01484 32733 ft 437 kts 352°
2026-05-04 00:52 39.44377 -82.01433 32469 ft 436 kts 352°
2026-05-04 00:53 39.47413 -82.01382 32206 ft 437 kts 352°
2026-05-04 00:53 39.50449 -82.01331 31943 ft 437 kts 352°
2026-05-04 00:53 39.53489 -82.01279 31717 ft 437 kts 352°
2026-05-04 00:53 39.56531 -82.01227 31474 ft 438 kts 352°
2026-05-04 00:54 39.59575 -82.01176 31225 ft 438 kts 352°
2026-05-04 00:54 39.62628 -82.01123 30965 ft 439 kts 352°
2026-05-04 00:54 39.65684 -82.01072 30722 ft 439 kts 352°
2026-05-04 00:54 39.68745 -82.01019 30464 ft 440 kts 352°
2026-05-04 00:55 39.71809 -82.00966 30219 ft 441 kts 352°
2026-05-04 00:55 39.74878 -82.00914 29953 ft 441 kts 352°
2026-05-04 00:55 39.77953 -82.00846 29691 ft 444 kts 354°
2026-05-04 00:55 39.81062 -82.00379 29404 ft 454 kts
2026-05-04 00:56 39.84178 -81.99626 29122 ft 457 kts
2026-05-04 00:56 39.87305 -81.98785 28833 ft 459 kts
2026-05-04 00:56 39.90430 -81.97939 28563 ft 460 kts
2026-05-04 00:56 39.93570 -81.97114 28290 ft 461 kts
2026-05-04 00:57 39.96716 -81.96321 28022 ft 461 kts
2026-05-04 00:57 39.99876 -81.95543 27780 ft 463 kts
2026-05-04 00:57 40.03045 -81.94767 27508 ft 463 kts
2026-05-04 00:57 40.06210 -81.94017 27246 ft 463 kts
2026-05-04 00:58 40.09380 -81.93254 27000 ft 464 kts
2026-05-04 00:58 40.12550 -81.92484 26015 ft 465 kts
2026-05-04 00:58 40.15720 -81.91709 25324 ft 460 kts
2026-05-04 00:58 40.18844 -81.90943 24630 ft 454 kts
2026-05-04 00:59 40.21936 -81.90189 23969 ft 449 kts
2026-05-04 00:59 40.24993 -81.89445 23220 ft 445 kts
2026-05-04 00:59 40.28019 -81.88708 22472 ft 440 kts
2026-05-04 00:59 40.31009 -81.87980 21801 ft 434 kts
2026-05-04 01:00 40.33920 -81.87270 21147 ft 429 kts
2026-05-04 01:00 40.36833 -81.86565 20487 ft 423 kts
2026-05-04 01:00 40.39719 -81.85887 19833 ft 419 kts
2026-05-04 01:00 40.42552 -81.85230 19555 ft 406 kts
2026-05-04 01:01 40.45282 -81.84597 19377 ft 391 kts
2026-05-04 01:01 40.47920 -81.83986 19212 ft 379 kts
2026-05-04 01:01 40.50474 -81.83390 19052 ft 367 kts
2026-05-04 01:01 40.52946 -81.82813 18909 ft 356 kts
2026-05-04 01:02 40.55367 -81.82249 18545 ft 352 kts
2026-05-04 01:02 40.57768 -81.81691 18137 ft 349 kts
2026-05-04 01:02 40.60148 -81.81132 17692 ft 346 kts
2026-05-04 01:02 40.62504 -81.80581 17340 ft 342 kts
2026-05-04 01:03 40.64835 -81.80037 16949 ft 339 kts
2026-05-04 01:03 40.67152 -81.79495 16541 ft 337 kts
2026-05-04 01:03 40.69459 -81.78956 16146 ft 335 kts
2026-05-04 01:03 40.71749 -81.78418 15758 ft 333 kts
2026-05-04 01:04 40.74022 -81.77891 15368 ft 331 kts
2026-05-04 01:04 40.76281 -81.77357 14988 ft 329 kts
2026-05-04 01:04 40.78529 -81.76828 14585 ft 328 kts
2026-05-04 01:04 40.80771 -81.76294 14199 ft 328 kts
2026-05-04 01:05 40.83011 -81.75791 13827 ft 326 kts
2026-05-04 01:05 40.85243 -81.75267 13402 ft 325 kts
2026-05-04 01:05 40.87466 -81.74735 12999 ft 324 kts
2026-05-04 01:05 40.89676 -81.74363 12700 ft 315 kts 359°
2026-05-04 01:06 40.91851 -81.74271 12362 ft 312 kts 356°
2026-05-04 01:06 40.94031 -81.74238 11985 ft 315 kts 356°
2026-05-04 01:06 40.96231 -81.74196 11618 ft 318 kts 356°
2026-05-04 01:06 40.98468 -81.74132 11237 ft 325 kts 357°
2026-05-04 01:07 41.00739 -81.74048 10845 ft 326 kts 357°
2026-05-04 01:07 41.02986 -81.73955 10641 ft 318 kts 357°
2026-05-04 01:07 41.05162 -81.73862 10483 ft 309 kts 357°
2026-05-04 01:07 41.07279 -81.73772 10343 ft 300 kts 357°
2026-05-04 01:08 41.09333 -81.73685 10206 ft 292 kts 356°
2026-05-04 01:08 41.11335 -81.73607 10073 ft 284 kts 356°
2026-05-04 01:08 41.13271 -81.73531 9812 ft 281 kts 356°
2026-05-04 01:08 41.15246 -81.73455 9489 ft 279 kts 356°
2026-05-04 01:09 41.17186 -81.73380 9196 ft 278 kts 356°
2026-05-04 01:09 41.19090 -81.73304 8913 ft 276 kts 356°
2026-05-04 01:09 41.21032 -81.73229 8624 ft 275 kts 356°
2026-05-04 01:09 41.22907 -81.73155 8334 ft 272 kts 356°
2026-05-04 01:10 41.24791 -81.73083 8063 ft 270 kts 356°
2026-05-04 01:10 41.26658 -81.73010 7801 ft 268 kts 356°
2026-05-04 01:10 41.28524 -81.72932 7545 ft 267 kts 356°
2026-05-04 01:10 41.30360 -81.72853 7432 ft 261 kts 356°
2026-05-04 01:11 41.32152 -81.72777 7284 ft 254 kts 356°
2026-05-04 01:11 41.33890 -81.72704 7181 ft 247 kts 355°
2026-05-04 01:11 41.35605 -81.72633 7069 ft 247 kts 355°
2026-05-04 01:11 41.37327 -81.72562 7016 ft 248 kts 358°
2026-05-04 01:12 41.38974 -81.71879 6981 ft 254 kts 36°
2026-05-04 01:12 41.40234 -81.70266 7021 ft 253 kts 43°
2026-05-04 01:12 41.41489 -81.68552 6756 ft 262 kts 44°
2026-05-04 01:12 41.42741 -81.66794 6506 ft 261 kts 45°
2026-05-04 01:13 41.43980 -81.65024 6245 ft 261 kts 45°
2026-05-04 01:13 41.45292 -81.63370 5969 ft 257 kts 28°
2026-05-04 01:13 41.46929 -81.62634 5699 ft 244 kts 354°
2026-05-04 01:13 41.48512 -81.63093 5434 ft 227 kts 321°
2026-05-04 01:14 41.49564 -81.64513 5132 ft 210 kts 288°
2026-05-04 01:14 41.50048 -81.66320 4862 ft 207 kts 281°
2026-05-04 01:14 41.50431 -81.68177 4555 ft 209 kts 280°
2026-05-04 01:14 41.50753 -81.70063 4233 ft 207 kts 268°
2026-05-04 01:15 41.50356 -81.71819 3877 ft 201 kts 231°
2026-05-04 01:15 41.49278 -81.72987 3421 ft 197 kts 222°
2026-05-04 01:15 41.48323 -81.74244 2951 ft 188 kts 230°
2026-05-04 01:15 41.47488 -81.75486 2630 ft 171 kts 231°
2026-05-04 01:16 41.46755 -81.76629 2409 ft 154 kts 232°
2026-05-04 01:16 41.46099 -81.77667 2211 ft 138 kts 232°
2026-05-04 01:16 41.45518 -81.78589 2030 ft 124 kts 230°
2026-05-04 01:16 41.44976 -81.79448 1871 ft 118 kts 231°
2026-05-04 01:17 41.44443 -81.80295 1698 ft 125 kts 231°
2026-05-04 01:17 41.43863 -81.81212 1603 ft 130 kts 231°
2026-05-04 01:17 41.43283 -81.82149 1407 ft 132 kts 233°
2026-05-04 01:17 41.42700 -81.83068 1168 ft 131 kts 231°
2026-05-04 01:18 41.42111 -81.84001 975 ft 136 kts 230°
2026-05-04 01:18 41.41505 -81.84950 778 ft 131 kts 230°
2026-05-04 01:18 41.40973 -81.85792 760 ft 101 kts 230°
2026-05-04 01:18 41.40647 -81.86299 761 ft 43 kts 229°
2026-05-04 01:19 41.40462 -81.86588 762 ft 38 kts 221°
2026-05-04 01:19 41.40285 -81.86638 759 ft 13 kts 118°
2026-05-04 01:19 41.40303 -81.86566 762 ft 0 kts 43°
2026-05-04 01:20 41.40304 -81.86565 762 ft 0 kts 43°
2026-05-04 01:21 41.40307 -81.86561 762 ft 5 kts 43°
2026-05-04 01:21 41.40372 -81.86480 762 ft 21 kts 44°
2026-05-04 01:22 41.40500 -81.86311 760 ft 27 kts 46°
2026-05-04 01:22 41.40623 -81.86119 760 ft 26 kts 50°
2026-05-04 01:22 41.40738 -81.85938 760 ft 25 kts 50°
2026-05-04 01:22 41.40845 -81.85768 760 ft 23 kts 50°
2026-05-04 01:23 41.40946 -81.85607 760 ft 22 kts 49°
2026-05-04 01:23 41.41045 -81.85451 760 ft 22 kts 50°
2026-05-04 01:23 41.41141 -81.85300 760 ft 21 kts 50°
2026-05-04 01:23 41.41235 -81.85152 760 ft 20 kts 50°
2026-05-04 01:24 41.41323 -81.85008 762 ft 20 kts 62°
2026-05-04 01:24 41.41275 -81.84908 762 ft 15 kts 141°
2026-05-04 01:24 41.41189 -81.84812 763 ft 16 kts 139°
2026-05-04 01:24 41.41105 -81.84719 763 ft 11 kts 134°
2026-05-04 01:25 41.41102 -81.84656 763 ft 1 kts 80°
2026-05-04 01:25 41.41144 -81.84591 763 ft 20 kts 50°
2026-05-04 01:25 41.41241 -81.84437 762 ft 22 kts 50°
2026-05-04 01:25 41.41324 -81.84307 762 ft 18 kts 49°
2026-05-04 01:26 41.41384 -81.84174 762 ft 17 kts 105°
2026-05-04 01:26 41.41328 -81.84031 762 ft 17 kts 110°
2026-05-04 01:26 41.41297 -81.83944 762 ft 7 kts 121°
2026-05-04 01:26 41.41279 -81.83908 762 ft 0 kts 123°